timestamp,waterbody_station,lease,latitude,longitude,deployment_start_date,deployment_end_date,sensor,depth,mooring,Temperature_degrees Celsius,Dissolved Oxygen_percent saturation
2017-11-19T00:00:00,Caribou Harbour-Waterside,1351.0,45.75625,-62.770311,2017-06-24,2017-11-28,HOBO-10755242,1.0,float,4.194,
2017-11-19T00:15:00,Caribou Harbour-Waterside,1351.0,45.75625,-62.770311,2017-06-24,2017-11-28,HOBO-10755242,1.0,float,4.22,
2017-11-19T00:30:00,Caribou Harbour-Waterside,1351.0,45.75625,-62.770311,2017-06-24,2017-11-28,HOBO-10755242,1.0,float,4.246,
2017-11-19T00:45:00,Caribou Harbour-Waterside,1351.0,45.75625,-62.770311,2017-06-24,2017-11-28,HOBO-10755242,1.0,float,4.298,
2017-11-19T01:00:00,Caribou Harbour-Waterside,1351.0,45.75625,-62.770311,2017-06-24,2017-11-28,HOBO-10755242,1.0,float,4.324,
2017-11-19T01:15:00,Caribou Harbour-Waterside,1351.0,45.75625,-62.770311,2017-06-24,2017-11-28,HOBO-10755242,1.0,float,4.376,
2017-11-19T01:30:00,Caribou Harbour-Waterside,1351.0,45.75625,-62.770311,2017-06-24,2017-11-28,HOBO-10755242,1.0,float,4.428,
2017-11-19T01:45:00,Caribou Harbour-Waterside,1351.0,45.75625,-62.770311,2017-06-24,2017-11-28,HOBO-10755242,1.0,float,4.454,
2017-11-19T02:00:00,Caribou Harbour-Waterside,1351.0,45.75625,-62.770311,2017-06-24,2017-11-28,HOBO-10755242,1.0,float,4.506,
2017-11-19T02:15:00,Caribou Harbour-Waterside,1351.0,45.75625,-62.770311,2017-06-24,2017-11-28,HOBO-10755242,1.0,float,4.532,
2017-11-19T02:30:00,Caribou Harbour-Waterside,1351.0,45.75625,-62.770311,2017-06-24,2017-11-28,HOBO-10755242,1.0,float,4.558,
2017-11-19T02:45:00,Caribou Harbour-Waterside,1351.0,45.75625,-62.770311,2017-06-24,2017-11-28,HOBO-10755242,1.0,float,4.584,
2017-11-19T03:00:00,Caribou Harbour-Waterside,1351.0,45.75625,-62.770311,2017-06-24,2017-11-28,HOBO-10755242,1.0,float,4.61,
2017-11-19T03:15:00,Caribou Harbour-Waterside,1351.0,45.75625,-62.770311,2017-06-24,2017-11-28,HOBO-10755242,1.0,float,4.636,
2017-11-19T03:30:00,Caribou Harbour-Waterside,1351.0,45.75625,-62.770311,2017-06-24,2017-11-28,HOBO-10755242,1.0,float,4.662,
2017-11-19T03:45:00,Caribou Harbour-Waterside,1351.0,45.75625,-62.770311,2017-06-24,2017-11-28,HOBO-10755242,1.0,float,4.662,
2017-11-19T04:00:00,Caribou Harbour-Waterside,1351.0,45.75625,-62.770311,2017-06-24,2017-11-28,HOBO-10755242,1.0,float,4.636,
2017-11-19T04:15:00,Caribou Harbour-Waterside,1351.0,45.75625,-62.770311,2017-06-24,2017-11-28,HOBO-10755242,1.0,float,4.584,
2017-11-19T04:30:00,Caribou Harbour-Waterside,1351.0,45.75625,-62.770311,2017-06-24,2017-11-28,HOBO-10755242,1.0,float,3.906,
2017-11-19T04:45:00,Caribou Harbour-Waterside,1351.0,45.75625,-62.770311,2017-06-24,2017-11-28,HOBO-10755242,1.0,float,3.485,
2017-11-19T05:00:00,Caribou Harbour-Waterside,1351.0,45.75625,-62.770311,2017-06-24,2017-11-28,HOBO-10755242,1.0,float,3.221,
2017-11-19T05:15:00,Caribou Harbour-Waterside,1351.0,45.75625,-62.770311,2017-06-24,2017-11-28,HOBO-10755242,1.0,float,3.009,
2017-11-19T05:30:00,Caribou Harbour-Waterside,1351.0,45.75625,-62.770311,2017-06-24,2017-11-28,HOBO-10755242,1.0,float,2.956,
2017-11-19T05:45:00,Caribou Harbour-Waterside,1351.0,45.75625,-62.770311,2017-06-24,2017-11-28,HOBO-10755242,1.0,float,2.903,
2017-11-19T06:00:00,Caribou Harbour-Waterside,1351.0,45.75625,-62.770311,2017-06-24,2017-11-28,HOBO-10755242,1.0,float,2.877,
2017-11-19T06:15:00,Caribou Harbour-Waterside,1351.0,45.75625,-62.770311,2017-06-24,2017-11-28,HOBO-10755242,1.0,float,2.877,
2017-11-19T06:30:00,Caribou Harbour-Waterside,1351.0,45.75625,-62.770311,2017-06-24,2017-11-28,HOBO-10755242,1.0,float,2.877,
2017-11-19T06:45:00,Caribou Harbour-Waterside,1351.0,45.75625,-62.770311,2017-06-24,2017-11-28,HOBO-10755242,1.0,float,2.823,
2017-11-19T07:00:00,Caribou Harbour-Waterside,1351.0,45.75625,-62.770311,2017-06-24,2017-11-28,HOBO-10755242,1.0,float,2.744,
2017-11-19T07:15:00,Caribou Harbour-Waterside,1351.0,45.75625,-62.770311,2017-06-24,2017-11-28,HOBO-10755242,1.0,float,2.69,
2017-11-19T07:30:00,Caribou Harbour-Waterside,1351.0,45.75625,-62.770311,2017-06-24,2017-11-28,HOBO-10755242,1.0,float,2.637,
2017-11-19T07:45:00,Caribou Harbour-Waterside,1351.0,45.75625,-62.770311,2017-06-24,2017-11-28,HOBO-10755242,1.0,float,2.557,
2017-11-19T08:00:00,Caribou Harbour-Waterside,1351.0,45.75625,-62.770311,2017-06-24,2017-11-28,HOBO-10755242,1.0,float,2.477,
2017-11-19T08:15:00,Caribou Harbour-Waterside,1351.0,45.75625,-62.770311,2017-06-24,2017-11-28,HOBO-10755242,1.0,float,2.45,
2017-11-19T08:30:00,Caribou Harbour-Waterside,1351.0,45.75625,-62.770311,2017-06-24,2017-11-28,HOBO-10755242,1.0,float,2.37,
2017-11-19T08:45:00,Caribou Harbour-Waterside,1351.0,45.75625,-62.770311,2017-06-24,2017-11-28,HOBO-10755242,1.0,float,2.262,
2017-11-19T09:00:00,Caribou Harbour-Waterside,1351.0,45.75625,-62.770311,2017-06-24,2017-11-28,HOBO-10755242,1.0,float,2.155,
2017-11-19T09:15:00,Caribou Harbour-Waterside,1351.0,45.75625,-62.770311,2017-06-24,2017-11-28,HOBO-10755242,1.0,float,2.182,
2017-11-19T09:30:00,Caribou Harbour-Waterside,1351.0,45.75625,-62.770311,2017-06-24,2017-11-28,HOBO-10755242,1.0,float,2.128,
2017-11-19T09:45:00,Caribou Harbour-Waterside,1351.0,45.75625,-62.770311,2017-06-24,2017-11-28,HOBO-10755242,1.0,float,2.021,
2017-11-19T10:00:00,Caribou Harbour-Waterside,1351.0,45.75625,-62.770311,2017-06-24,2017-11-28,HOBO-10755242,1.0,float,2.047,
2017-11-19T10:15:00,Caribou Harbour-Waterside,1351.0,45.75625,-62.770311,2017-06-24,2017-11-28,HOBO-10755242,1.0,float,2.101,
2017-11-19T10:30:00,Caribou Harbour-Waterside,1351.0,45.75625,-62.770311,2017-06-24,2017-11-28,HOBO-10755242,1.0,float,2.155,
2017-11-19T10:45:00,Caribou Harbour-Waterside,1351.0,45.75625,-62.770311,2017-06-24,2017-11-28,HOBO-10755242,1.0,float,2.182,
2017-11-19T11:00:00,Caribou Harbour-Waterside,1351.0,45.75625,-62.770311,2017-06-24,2017-11-28,HOBO-10755242,1.0,float,2.209,
2017-11-19T11:15:00,Caribou Harbour-Waterside,1351.0,45.75625,-62.770311,2017-06-24,2017-11-28,HOBO-10755242,1.0,float,2.37,
2017-11-19T11:30:00,Caribou Harbour-Waterside,1351.0,45.75625,-62.770311,2017-06-24,2017-11-28,HOBO-10755242,1.0,float,3.009,
2017-11-19T11:45:00,Caribou Harbour-Waterside,1351.0,45.75625,-62.770311,2017-06-24,2017-11-28,HOBO-10755242,1.0,float,3.142,
2017-11-19T12:00:00,Caribou Harbour-Waterside,1351.0,45.75625,-62.770311,2017-06-24,2017-11-28,HOBO-10755242,1.0,float,3.38,
2017-11-19T12:15:00,Caribou Harbour-Waterside,1351.0,45.75625,-62.770311,2017-06-24,2017-11-28,HOBO-10755242,1.0,float,3.512,
2017-11-19T12:30:00,Caribou Harbour-Waterside,1351.0,45.75625,-62.770311,2017-06-24,2017-11-28,HOBO-10755242,1.0,float,3.538,
2017-11-19T12:45:00,Caribou Harbour-Waterside,1351.0,45.75625,-62.770311,2017-06-24,2017-11-28,HOBO-10755242,1.0,float,3.591,
2017-11-19T13:00:00,Caribou Harbour-Waterside,1351.0,45.75625,-62.770311,2017-06-24,2017-11-28,HOBO-10755242,1.0,float,3.617,
2017-11-19T13:15:00,Caribou Harbour-Waterside,1351.0,45.75625,-62.770311,2017-06-24,2017-11-28,HOBO-10755242,1.0,float,3.617,
2017-11-19T13:30:00,Caribou Harbour-Waterside,1351.0,45.75625,-62.770311,2017-06-24,2017-11-28,HOBO-10755242,1.0,float,3.643,
2017-11-19T13:45:00,Caribou Harbour-Waterside,1351.0,45.75625,-62.770311,2017-06-24,2017-11-28,HOBO-10755242,1.0,float,3.696,
2017-11-19T14:00:00,Caribou Harbour-Waterside,1351.0,45.75625,-62.770311,2017-06-24,2017-11-28,HOBO-10755242,1.0,float,3.722,
2017-11-19T14:15:00,Caribou Harbour-Waterside,1351.0,45.75625,-62.770311,2017-06-24,2017-11-28,HOBO-10755242,1.0,float,3.749,
2017-11-19T14:30:00,Caribou Harbour-Waterside,1351.0,45.75625,-62.770311,2017-06-24,2017-11-28,HOBO-10755242,1.0,float,3.775,
2017-11-19T14:45:00,Caribou Harbour-Waterside,1351.0,45.75625,-62.770311,2017-06-24,2017-11-28,HOBO-10755242,1.0,float,3.801,
2017-11-19T15:00:00,Caribou Harbour-Waterside,1351.0,45.75625,-62.770311,2017-06-24,2017-11-28,HOBO-10755242,1.0,float,3.801,
2017-11-19T15:15:00,Caribou Harbour-Waterside,1351.0,45.75625,-62.770311,2017-06-24,2017-11-28,HOBO-10755242,1.0,float,3.827,
2017-11-19T15:30:00,Caribou Harbour-Waterside,1351.0,45.75625,-62.770311,2017-06-24,2017-11-28,HOBO-10755242,1.0,float,3.854,
2017-11-19T15:45:00,Caribou Harbour-Waterside,1351.0,45.75625,-62.770311,2017-06-24,2017-11-28,HOBO-10755242,1.0,float,3.88,
2017-11-19T16:00:00,Caribou Harbour-Waterside,1351.0,45.75625,-62.770311,2017-06-24,2017-11-28,HOBO-10755242,1.0,float,3.906,
2017-11-19T16:15:00,Caribou Harbour-Waterside,1351.0,45.75625,-62.770311,2017-06-24,2017-11-28,HOBO-10755242,1.0,float,3.932,
2017-11-19T16:30:00,Caribou Harbour-Waterside,1351.0,45.75625,-62.770311,2017-06-24,2017-11-28,HOBO-10755242,1.0,float,3.958,
2017-11-19T16:45:00,Caribou Harbour-Waterside,1351.0,45.75625,-62.770311,2017-06-24,2017-11-28,HOBO-10755242,1.0,float,4.011,
2017-11-19T17:00:00,Caribou Harbour-Waterside,1351.0,45.75625,-62.770311,2017-06-24,2017-11-28,HOBO-10755242,1.0,float,4.037,
2017-11-19T17:15:00,Caribou Harbour-Waterside,1351.0,45.75625,-62.770311,2017-06-24,2017-11-28,HOBO-10755242,1.0,float,4.063,
2017-11-19T17:30:00,Caribou Harbour-Waterside,1351.0,45.75625,-62.770311,2017-06-24,2017-11-28,HOBO-10755242,1.0,float,4.115,
2017-11-19T17:45:00,Caribou Harbour-Waterside,1351.0,45.75625,-62.770311,2017-06-24,2017-11-28,HOBO-10755242,1.0,float,4.22,
2017-11-19T18:00:00,Caribou Harbour-Waterside,1351.0,45.75625,-62.770311,2017-06-24,2017-11-28,HOBO-10755242,1.0,float,4.324,
2017-11-19T18:15:00,Caribou Harbour-Waterside,1351.0,45.75625,-62.770311,2017-06-24,2017-11-28,HOBO-10755242,1.0,float,4.428,
2017-11-19T18:30:00,Caribou Harbour-Waterside,1351.0,45.75625,-62.770311,2017-06-24,2017-11-28,HOBO-10755242,1.0,float,4.506,
2017-11-19T18:45:00,Caribou Harbour-Waterside,1351.0,45.75625,-62.770311,2017-06-24,2017-11-28,HOBO-10755242,1.0,float,4.584,
2017-11-19T19:00:00,Caribou Harbour-Waterside,1351.0,45.75625,-62.770311,2017-06-24,2017-11-28,HOBO-10755242,1.0,float,4.558,
2017-11-19T19:15:00,Caribou Harbour-Waterside,1351.0,45.75625,-62.770311,2017-06-24,2017-11-28,HOBO-10755242,1.0,float,4.792,
2017-11-19T19:30:00,Caribou Harbour-Waterside,1351.0,45.75625,-62.770311,2017-06-24,2017-11-28,HOBO-10755242,1.0,float,4.869,
2017-11-19T19:45:00,Caribou Harbour-Waterside,1351.0,45.75625,-62.770311,2017-06-24,2017-11-28,HOBO-10755242,1.0,float,4.895,
2017-11-19T20:00:00,Caribou Harbour-Waterside,1351.0,45.75625,-62.770311,2017-06-24,2017-11-28,HOBO-10755242,1.0,float,5.05,
2017-11-19T20:15:00,Caribou Harbour-Waterside,1351.0,45.75625,-62.770311,2017-06-24,2017-11-28,HOBO-10755242,1.0,float,5.231,
2017-11-19T20:30:00,Caribou Harbour-Waterside,1351.0,45.75625,-62.770311,2017-06-24,2017-11-28,HOBO-10755242,1.0,float,5.257,
2017-11-19T20:45:00,Caribou Harbour-Waterside,1351.0,45.75625,-62.770311,2017-06-24,2017-11-28,HOBO-10755242,1.0,float,5.334,
2017-11-19T21:00:00,Caribou Harbour-Waterside,1351.0,45.75625,-62.770311,2017-06-24,2017-11-28,HOBO-10755242,1.0,float,5.36,
2017-11-19T21:15:00,Caribou Harbour-Waterside,1351.0,45.75625,-62.770311,2017-06-24,2017-11-28,HOBO-10755242,1.0,float,5.514,
2017-11-19T21:30:00,Caribou Harbour-Waterside,1351.0,45.75625,-62.770311,2017-06-24,2017-11-28,HOBO-10755242,1.0,float,5.514,
2017-11-19T21:45:00,Caribou Harbour-Waterside,1351.0,45.75625,-62.770311,2017-06-24,2017-11-28,HOBO-10755242,1.0,float,5.719,
2017-11-19T22:00:00,Caribou Harbour-Waterside,1351.0,45.75625,-62.770311,2017-06-24,2017-11-28,HOBO-10755242,1.0,float,5.847,
2017-11-19T22:15:00,Caribou Harbour-Waterside,1351.0,45.75625,-62.770311,2017-06-24,2017-11-28,HOBO-10755242,1.0,float,5.949,
2017-11-19T22:30:00,Caribou Harbour-Waterside,1351.0,45.75625,-62.770311,2017-06-24,2017-11-28,HOBO-10755242,1.0,float,5.898,
2017-11-19T22:45:00,Caribou Harbour-Waterside,1351.0,45.75625,-62.770311,2017-06-24,2017-11-28,HOBO-10755242,1.0,float,5.949,
2017-11-19T23:00:00,Caribou Harbour-Waterside,1351.0,45.75625,-62.770311,2017-06-24,2017-11-28,HOBO-10755242,1.0,float,6.179,
2017-11-19T23:15:00,Caribou Harbour-Waterside,1351.0,45.75625,-62.770311,2017-06-24,2017-11-28,HOBO-10755242,1.0,float,6.128,
2017-11-19T23:30:00,Caribou Harbour-Waterside,1351.0,45.75625,-62.770311,2017-06-24,2017-11-28,HOBO-10755242,1.0,float,6.128,
2017-11-19T23:45:00,Caribou Harbour-Waterside,1351.0,45.75625,-62.770311,2017-06-24,2017-11-28,HOBO-10755242,1.0,float,6.255,
